Powrót do katalogu

STARLINK-5638

AktywnyŁącznośćVLEO
NORAD 55426·PAYLOAD·🇺🇸 United States

Wystrzelony Jan 31, 2023 z Vandenberg Space Force Base

Loading…

Następne Przeloty (najbliższe 24 godziny)

TLE

ŚwieżeSource: CelesTrak SupGP

Epoka: Sep 14, 2026, 21:19 UTC

1 55426C 23014AM  26257.88868056  .00442320  00000+0  36411-1 0  2570
2 55426  70.0004 327.5559 0003097 271.8230 281.2390 14.98798066    17

Śledź STARLINK-5638 w czasie rzeczywistym z AllMySat

Download on the App Store